Year,Month,Day,Hour,Minute,Value (Times are PST for windspeed in km/hr)
2011,04,21,00,00,0.00
2011,04,21,00,01,0.00
2011,04,21,00,02,0.10
2011,04,21,00,03,0.00
2011,04,21,00,04,0.00
2011,04,21,00,05,0.00
2011,04,21,00,06,0.00
2011,04,21,00,07,0.00
2011,04,21,00,08,0.00
2011,04,21,00,09,0.00
2011,04,21,00,10,0.00
2011,04,21,00,11,0.00
2011,04,21,00,12,0.00
2011,04,21,00,13,0.00
2011,04,21,00,14,0.00
2011,04,21,00,15,0.00
2011,04,21,00,16,0.20
2011,04,21,00,17,1.80
2011,04,21,00,18,0.00
2011,04,21,00,19,0.00
2011,04,21,00,20,0.00
2011,04,21,00,21,0.00
2011,04,21,00,22,0.00
2011,04,21,00,23,0.00
2011,04,21,00,24,0.00
2011,04,21,00,25,0.00
2011,04,21,00,26,0.10
2011,04,21,00,27,0.00
2011,04,21,00,28,0.00
2011,04,21,00,29,0.10
2011,04,21,00,30,0.20
2011,04,21,00,31,0.00
2011,04,21,00,32,0.00
2011,04,21,00,33,0.00
2011,04,21,00,34,0.00
2011,04,21,00,35,1.10
2011,04,21,00,36,0.60
2011,04,21,00,37,0.00
2011,04,21,00,38,0.00
2011,04,21,00,39,0.20
2011,04,21,00,40,0.20
2011,04,21,00,41,0.10
2011,04,21,00,42,0.00
2011,04,21,00,43,0.00
2011,04,21,00,44,0.00
2011,04,21,00,45,0.00
2011,04,21,00,46,0.00
2011,04,21,00,47,0.20
2011,04,21,00,48,0.00
2011,04,21,00,49,0.00
2011,04,21,00,50,0.00
2011,04,21,00,51,0.00
2011,04,21,00,52,0.00
2011,04,21,00,53,0.00
2011,04,21,00,54,0.00
2011,04,21,00,55,0.00
2011,04,21,00,56,0.00
2011,04,21,00,57,0.00
2011,04,21,00,58,0.00
2011,04,21,00,59,0.00
2011,04,21,01,00,0.00
2011,04,21,01,01,0.00
2011,04,21,01,02,0.00
2011,04,21,01,03,0.00
2011,04,21,01,04,0.00
2011,04,21,01,05,0.00
2011,04,21,01,06,0.00
2011,04,21,01,07,0.00
2011,04,21,01,08,0.00
2011,04,21,01,09,0.00
2011,04,21,01,10,0.00
2011,04,21,01,11,0.00
2011,04,21,01,12,0.00
2011,04,21,01,13,0.00
2011,04,21,01,14,0.00
2011,04,21,01,15,0.00
2011,04,21,01,16,0.00
2011,04,21,01,17,0.00
2011,04,21,01,18,0.00
2011,04,21,01,19,0.00
2011,04,21,01,20,0.00
2011,04,21,01,21,0.00
2011,04,21,01,22,0.00
2011,04,21,01,23,0.00
2011,04,21,01,24,0.00
2011,04,21,01,25,0.00
2011,04,21,01,26,0.00
2011,04,21,01,27,0.00
2011,04,21,01,28,0.00
2011,04,21,01,29,0.00
2011,04,21,01,30,0.00
2011,04,21,01,31,0.00
2011,04,21,01,32,0.00
2011,04,21,01,33,0.00
2011,04,21,01,34,0.00
2011,04,21,01,35,0.00
2011,04,21,01,36,0.00
2011,04,21,01,37,0.00
2011,04,21,01,38,0.00
2011,04,21,01,39,0.00
2011,04,21,01,40,0.00
2011,04,21,01,41,0.00
2011,04,21,01,42,0.00
2011,04,21,01,43,0.00
2011,04,21,01,44,0.00
2011,04,21,01,45,0.00
2011,04,21,01,46,0.00
2011,04,21,01,47,0.00
2011,04,21,01,48,0.00
2011,04,21,01,49,0.00
2011,04,21,01,50,0.00
2011,04,21,01,51,0.00
2011,04,21,01,52,0.00
2011,04,21,01,53,0.00
2011,04,21,01,54,0.00
2011,04,21,01,55,0.00
2011,04,21,01,56,0.00
2011,04,21,01,57,0.00
2011,04,21,01,58,0.00
2011,04,21,01,59,0.00
2011,04,21,02,00,0.00
2011,04,21,02,01,0.00
2011,04,21,02,02,0.00
2011,04,21,02,03,0.00
2011,04,21,02,04,0.00
2011,04,21,02,05,0.00
2011,04,21,02,06,0.00
2011,04,21,02,07,0.00
2011,04,21,02,08,0.00
2011,04,21,02,09,0.00
2011,04,21,02,10,0.00
2011,04,21,02,11,0.00
2011,04,21,02,12,0.00
2011,04,21,02,13,0.00
2011,04,21,02,14,0.00
2011,04,21,02,15,0.00
2011,04,21,02,16,0.00
2011,04,21,02,17,0.00
2011,04,21,02,18,0.00
2011,04,21,02,19,0.00
2011,04,21,02,20,0.00
2011,04,21,02,21,0.00
2011,04,21,02,22,0.00
2011,04,21,02,23,0.00
2011,04,21,02,24,0.00
2011,04,21,02,25,0.00
2011,04,21,02,26,0.00
2011,04,21,02,27,0.00
2011,04,21,02,28,0.00
2011,04,21,02,29,0.00
2011,04,21,02,30,0.00
2011,04,21,02,31,0.00
2011,04,21,02,32,0.00
2011,04,21,02,33,0.00
2011,04,21,02,34,0.00
2011,04,21,02,35,0.00
2011,04,21,02,36,0.00
2011,04,21,02,37,0.00
2011,04,21,02,38,0.00
2011,04,21,02,39,0.00
2011,04,21,02,40,0.00
2011,04,21,02,41,0.00
2011,04,21,02,42,0.00
2011,04,21,02,43,0.00
2011,04,21,02,44,0.00
2011,04,21,02,45,0.00
2011,04,21,02,46,0.00
2011,04,21,02,47,0.00
2011,04,21,02,48,0.00
2011,04,21,02,49,0.00
2011,04,21,02,50,0.00
2011,04,21,02,51,0.00
2011,04,21,02,52,0.00
2011,04,21,02,53,0.00
2011,04,21,02,54,0.00
2011,04,21,02,55,0.00
2011,04,21,02,56,0.00
2011,04,21,02,57,0.00
2011,04,21,02,58,0.00
2011,04,21,02,59,0.00
2011,04,21,03,00,0.00
2011,04,21,03,01,0.00
2011,04,21,03,02,0.00
2011,04,21,03,03,0.00
2011,04,21,03,04,0.00
2011,04,21,03,05,0.00
2011,04,21,03,06,0.00
2011,04,21,03,07,0.00
2011,04,21,03,08,0.00
2011,04,21,03,09,0.00
2011,04,21,07,51,0.00
2011,04,21,07,52,0.00
2011,04,21,07,53,0.00
2011,04,21,07,54,0.00
2011,04,21,07,55,0.00
2011,04,21,07,56,0.00
2011,04,21,07,57,0.00
2011,04,21,07,58,0.00
2011,04,21,07,59,0.00
2011,04,21,08,00,0.00
2011,04,21,08,01,0.00
2011,04,21,08,02,0.00
2011,04,21,08,03,0.00
2011,04,21,08,04,0.00
2011,04,21,08,05,0.00
2011,04,21,08,06,0.00
2011,04,21,08,07,0.00
2011,04,21,08,08,0.00
2011,04,21,08,09,0.00
2011,04,21,08,10,0.00
2011,04,21,08,11,0.00
2011,04,21,08,12,0.00
2011,04,21,08,13,0.00
2011,04,21,08,14,0.00
2011,04,21,08,15,0.00
2011,04,21,08,16,0.00
2011,04,21,08,17,0.10
2011,04,21,08,18,0.00
2011,04,21,08,19,0.00
2011,04,21,08,20,0.00
2011,04,21,08,21,0.00
2011,04,21,08,22,0.00
2011,04,21,08,23,0.00
2011,04,21,08,24,0.00
2011,04,21,08,25,0.10
2011,04,21,08,26,0.00
2011,04,21,08,27,0.10
2011,04,21,08,28,0.60
2011,04,21,08,29,0.00
2011,04,21,08,30,0.00
2011,04,21,08,31,0.00
2011,04,21,08,32,0.00
2011,04,21,08,33,0.60
2011,04,21,08,34,2.30
2011,04,21,08,35,0.00
2011,04,21,08,36,0.70
2011,04,21,08,37,0.20
2011,04,21,08,38,0.10
2011,04,21,08,39,0.70
2011,04,21,08,40,2.30
2011,04,21,08,41,0.10
2011,04,21,08,42,0.00
2011,04,21,08,43,0.00
2011,04,21,08,44,0.20
2011,04,21,08,45,0.80
2011,04,21,08,46,1.00
2011,04,21,08,47,0.90
2011,04,21,08,48,0.10
2011,04,21,08,49,2.30
2011,04,21,08,50,1.90
2011,04,21,08,51,1.20
2011,04,21,08,52,0.80
2011,04,21,08,53,0.10
2011,04,21,08,54,0.10
2011,04,21,08,55,0.60
2011,04,21,08,56,0.00
2011,04,21,08,57,2.10
2011,04,21,08,58,0.60
2011,04,21,08,59,0.10
2011,04,21,09,00,0.00
2011,04,21,09,01,0.00
2011,04,21,09,02,0.10
2011,04,21,09,03,0.00
2011,04,21,09,04,2.00
2011,04,21,09,05,2.20
2011,04,21,09,06,2.00
2011,04,21,09,07,0.60
2011,04,21,09,08,0.50
2011,04,21,09,09,0.80
2011,04,21,09,10,1.60
2011,04,21,09,11,1.60
2011,04,21,09,12,2.70
2011,04,21,09,13,0.20
2011,04,21,09,14,4.80
2011,04,21,09,15,2.10
2011,04,21,09,16,2.00
2011,04,21,09,17,3.90
2011,04,21,09,18,4.60
2011,04,21,09,19,4.70
2011,04,21,09,20,4.40
2011,04,21,09,21,0.70
2011,04,21,09,22,2.50
2011,04,21,09,23,1.30
2011,04,21,09,24,0.40
2011,04,21,09,25,0.00
2011,04,21,09,26,0.00
2011,04,21,09,27,0.00
2011,04,21,09,28,0.00
2011,04,21,09,29,0.00
2011,04,21,09,30,0.10
2011,04,21,09,31,0.20
2011,04,21,09,32,1.80
2011,04,21,09,33,0.30
2011,04,21,09,34,0.00
2011,04,21,09,35,0.00
2011,04,21,09,36,0.10
2011,04,21,09,37,0.10
2011,04,21,09,38,0.00
2011,04,21,09,39,0.00
2011,04,21,09,40,0.00
2011,04,21,09,41,0.50
2011,04,21,09,42,2.10
2011,04,21,09,43,1.50
2011,04,21,09,44,0.90
2011,04,21,09,45,0.20
2011,04,21,09,46,1.00
2011,04,21,09,47,1.20
2011,04,21,09,48,0.00
2011,04,21,09,49,0.40
2011,04,21,09,50,1.60
2011,04,21,09,51,0.40
2011,04,21,09,52,1.00
2011,04,21,09,53,0.90
2011,04,21,09,54,0.80
2011,04,21,09,55,1.00
2011,04,21,09,56,1.10
2011,04,21,09,57,2.20
2011,04,21,09,58,2.40
2011,04,21,09,59,0.60
2011,04,21,10,00,0.20
2011,04,21,10,01,1.30
2011,04,21,10,02,0.10
2011,04,21,10,03,0.00
2011,04,21,10,04,0.00
2011,04,21,10,05,0.00
2011,04,21,10,06,0.00
2011,04,21,10,07,0.20
2011,04,21,10,08,0.70
2011,04,21,10,09,0.10
2011,04,21,10,10,0.80
2011,04,21,10,11,0.20
2011,04,21,10,12,0.60
2011,04,21,10,13,0.00
2011,04,21,10,14,0.10
2011,04,21,10,15,0.40
2011,04,21,10,16,0.00
2011,04,21,10,17,1.70
2011,04,21,10,18,2.90
2011,04,21,10,19,4.50
2011,04,21,10,20,2.30
2011,04,21,10,21,0.60
2011,04,21,10,22,0.70
2011,04,21,10,23,0.20
2011,04,21,10,24,0.10
2011,04,21,10,25,0.40
2011,04,21,10,26,1.30
2011,04,21,10,27,0.80
2011,04,21,10,28,2.70
2011,04,21,10,29,0.60
2011,04,21,10,30,0.90
2011,04,21,10,31,0.40
2011,04,21,10,32,0.80
2011,04,21,10,33,0.80
2011,04,21,10,34,0.00
2011,04,21,10,35,0.40
2011,04,21,10,36,2.90
2011,04,21,10,37,1.00
2011,04,21,10,38,3.10
2011,04,21,10,39,1.50
2011,04,21,10,40,1.00
2011,04,21,10,41,2.50
2011,04,21,10,42,4.70
2011,04,21,10,43,1.20
2011,04,21,10,44,1.20
2011,04,21,10,45,1.80
2011,04,21,10,46,3.90
2011,04,21,10,47,1.80
2011,04,21,10,48,0.00
2011,04,21,10,49,0.00
2011,04,21,10,50,0.00
2011,04,21,10,51,0.00
2011,04,21,10,52,0.00
2011,04,21,10,53,0.00
2011,04,21,10,54,0.10
2011,04,21,10,55,0.00
2011,04,21,10,56,0.00
2011,04,21,10,57,0.00
2011,04,21,10,58,0.10
2011,04,21,10,59,0.00
2011,04,21,11,00,0.00
2011,04,21,11,01,0.10
2011,04,21,11,02,0.20
2011,04,21,11,03,0.00
2011,04,21,11,04,0.40
2011,04,21,11,05,1.00
2011,04,21,11,06,0.00
2011,04,21,11,07,0.20
2011,04,21,11,08,0.00
2011,04,21,11,09,0.40
2011,04,21,11,10,0.00
2011,04,21,11,11,0.60
2011,04,21,11,12,2.20
2011,04,21,11,13,0.40
2011,04,21,11,14,1.30
2011,04,21,11,15,0.30
2011,04,21,11,16,0.30
2011,04,21,11,17,0.00
2011,04,21,11,18,0.00
2011,04,21,11,19,0.00
2011,04,21,11,20,0.00
2011,04,21,11,21,0.10
2011,04,21,11,22,0.10
2011,04,21,11,23,1.00
2011,04,21,11,24,0.00
2011,04,21,11,25,0.10
2011,04,21,11,26,3.80
2011,04,21,11,27,1.30
2011,04,21,11,28,0.70
2011,04,21,11,29,0.70
2011,04,21,11,30,0.50
2011,04,21,11,31,1.90
2011,04,21,11,32,0.20
2011,04,21,11,33,0.00
2011,04,21,11,34,1.20
2011,04,21,11,35,0.20
2011,04,21,11,36,1.30
2011,04,21,11,37,2.90
2011,04,21,11,38,1.40
2011,04,21,11,39,3.40
2011,04,21,11,40,3.10
2011,04,21,11,41,1.90
2011,04,21,11,42,0.10
2011,04,21,11,43,0.50
2011,04,21,11,44,1.30
2011,04,21,11,45,2.80
2011,04,21,11,46,3.80
2011,04,21,11,47,0.40
2011,04,21,11,48,0.20
2011,04,21,11,49,0.20
2011,04,21,11,50,1.80
2011,04,21,11,51,2.40
2011,04,21,11,52,2.40
2011,04,21,11,53,0.80
2011,04,21,11,54,0.40
2011,04,21,11,55,0.60
2011,04,21,11,56,0.00
2011,04,21,11,57,0.70
2011,04,21,11,58,1.90
2011,04,21,11,59,0.60
2011,04,21,12,00,0.20
2011,04,21,12,01,1.50
2011,04,21,12,02,3.10
2011,04,21,12,03,1.40
2011,04,21,12,04,1.40
2011,04,21,12,05,1.20
2011,04,21,12,06,3.30
2011,04,21,12,07,2.70
2011,04,21,12,08,2.90
2011,04,21,12,09,2.20
2011,04,21,12,10,0.60
2011,04,21,12,11,1.90
2011,04,21,12,12,0.90
2011,04,21,12,13,0.20
2011,04,21,12,14,0.10
2011,04,21,12,15,0.00
2011,04,21,12,16,1.10
2011,04,21,12,17,2.60
2011,04,21,12,18,2.90
2011,04,21,12,19,0.60
2011,04,21,12,20,6.80
2011,04,21,12,21,5.20
2011,04,21,12,22,3.80
2011,04,21,12,23,0.10
2011,04,21,12,24,0.30
2011,04,21,12,25,4.70
2011,04,21,12,26,6.90
2011,04,21,12,27,6.10
2011,04,21,12,28,4.40
2011,04,21,12,29,0.80
2011,04,21,12,30,1.90
2011,04,21,12,31,3.60
2011,04,21,12,32,1.10
2011,04,21,12,33,1.40
2011,04,21,12,34,1.10
2011,04,21,12,35,1.20
2011,04,21,12,36,1.60
2011,04,21,12,37,0.20
2011,04,21,12,38,0.90
2011,04,21,12,39,1.30
2011,04,21,12,40,0.50
2011,04,21,12,41,1.10
2011,04,21,12,42,0.30
2011,04,21,12,43,0.20
2011,04,21,12,44,2.00
2011,04,21,12,45,2.90
2011,04,21,12,46,0.60
2011,04,21,12,47,0.10
2011,04,21,12,48,1.20
2011,04,21,12,49,0.20
2011,04,21,12,50,0.10
2011,04,21,12,51,2.40
2011,04,21,12,52,2.60
2011,04,21,12,53,1.50
2011,04,21,12,54,0.70
2011,04,21,12,55,1.20
2011,04,21,12,56,1.20
2011,04,21,12,57,0.50
2011,04,21,12,58,2.00
2011,04,21,12,59,0.60
2011,04,21,13,00,1.50
2011,04,21,13,01,0.20
2011,04,21,13,02,0.10
2011,04,21,13,03,0.00
2011,04,21,13,04,0.80
2011,04,21,13,05,0.80
2011,04,21,13,06,0.10
2011,04,21,13,07,0.00
2011,04,21,13,08,0.00
2011,04,21,13,09,0.10
2011,04,21,13,10,0.00
2011,04,21,13,11,0.00
2011,04,21,13,12,0.00
2011,04,21,13,13,0.10
2011,04,21,13,14,0.30
2011,04,21,13,15,2.50
2011,04,21,13,16,0.20
2011,04,21,13,17,0.10
2011,04,21,13,18,0.00
2011,04,21,13,19,0.10
2011,04,21,13,20,0.90
2011,04,21,13,21,1.90
2011,04,21,13,22,1.60
2011,04,21,13,23,2.30
2011,04,21,13,24,0.40
2011,04,21,13,25,1.90
2011,04,21,13,26,3.10
2011,04,21,13,27,3.40
2011,04,21,13,28,4.30
2011,04,21,13,29,1.80
2011,04,21,13,30,1.70
2011,04,21,13,31,0.00
2011,04,21,13,32,1.40
2011,04,21,13,33,1.30
2011,04,21,13,34,1.20
2011,04,21,13,35,1.00
2011,04,21,13,36,2.40
2011,04,21,13,37,3.40
2011,04,21,13,38,3.10
2011,04,21,13,39,2.60
2011,04,21,13,40,0.50
2011,04,21,13,41,0.00
2011,04,21,13,42,0.60
2011,04,21,13,43,0.60
2011,04,21,13,44,2.80
2011,04,21,13,45,2.30
2011,04,21,13,46,0.20
2011,04,21,13,47,1.20
2011,04,21,13,48,2.30
2011,04,21,13,49,0.30
2011,04,21,13,50,1.80
2011,04,21,13,51,5.40
2011,04,21,13,52,3.20
2011,04,21,13,53,0.50
2011,04,21,13,54,6.40
2011,04,21,13,55,3.10
2011,04,21,13,56,5.90
2011,04,21,13,57,7.10
2011,04,21,13,58,3.90
2011,04,21,13,59,3.10
2011,04,21,14,00,5.10
2011,04,21,14,01,1.10
2011,04,21,14,02,1.20
2011,04,21,14,03,1.90
2011,04,21,14,04,5.70
2011,04,21,14,05,5.60
2011,04,21,14,06,5.20
2011,04,21,14,07,3.10
2011,04,21,14,08,3.50
2011,04,21,14,09,5.80
2011,04,21,14,10,4.00
2011,04,21,14,11,7.60
2011,04,21,14,12,4.90
2011,04,21,14,13,5.20
2011,04,21,14,14,2.30
2011,04,21,14,15,5.20
2011,04,21,14,16,4.80
2011,04,21,14,17,4.20
2011,04,21,14,18,3.80
2011,04,21,14,19,1.00
2011,04,21,14,20,2.70
2011,04,21,14,21,4.20
2011,04,21,14,22,5.60
2011,04,21,14,23,3.30
2011,04,21,14,24,4.70
2011,04,21,14,25,3.00
2011,04,21,14,26,1.10
2011,04,21,14,27,2.70
2011,04,21,14,28,2.10
2011,04,21,14,29,1.90
2011,04,21,14,30,3.90
2011,04,21,14,31,6.50
2011,04,21,14,32,4.50
2011,04,21,14,33,4.30
2011,04,21,14,34,2.60
2011,04,21,14,35,4.60
2011,04,21,14,36,0.30
2011,04,21,14,37,1.70
2011,04,21,14,38,0.10
2011,04,21,14,39,0.00
2011,04,21,14,40,2.10
2011,04,21,14,41,1.00
2011,04,21,14,42,0.30
2011,04,21,14,43,2.50
2011,04,21,14,44,2.40
2011,04,21,14,45,1.80
2011,04,21,14,46,3.50
2011,04,21,14,47,1.80
2011,04,21,14,48,2.30
2011,04,21,14,49,0.80
2011,04,21,14,50,4.00
2011,04,21,14,51,1.40
2011,04,21,14,52,8.30
2011,04,21,14,53,1.70
2011,04,21,14,54,1.50
2011,04,21,14,55,1.90
2011,04,21,14,56,5.60
2011,04,21,14,57,5.40
2011,04,21,14,58,2.20
2011,04,21,14,59,7.20
2011,04,21,15,00,4.50
2011,04,21,15,01,3.50
2011,04,21,15,02,2.20
2011,04,21,15,03,2.70
2011,04,21,15,04,1.40
2011,04,21,15,05,2.70
2011,04,21,15,06,2.80
2011,04,21,15,07,2.70
2011,04,21,15,08,4.70
2011,04,21,15,09,2.60
2011,04,21,15,10,0.50
2011,04,21,15,11,0.60
2011,04,21,15,12,2.20
2011,04,21,15,13,3.00
2011,04,21,15,14,1.10
2011,04,21,15,15,1.30
2011,04,21,15,16,2.20
2011,04,21,15,17,1.00
2011,04,21,15,18,0.20
2011,04,21,15,19,0.80
2011,04,21,15,20,1.80
2011,04,21,15,21,0.90
2011,04,21,15,22,0.70
2011,04,21,15,23,1.00
2011,04,21,15,24,0.30
2011,04,21,15,25,2.30
2011,04,21,15,26,2.10
2011,04,21,15,27,2.10
2011,04,21,15,28,0.20
2011,04,21,15,29,5.00
2011,04,21,15,30,5.00
2011,04,21,15,31,5.80
2011,04,21,15,32,3.40
2011,04,21,15,33,0.80
2011,04,21,15,34,0.00
2011,04,21,15,35,0.20
2011,04,21,15,36,0.70
2011,04,21,15,37,2.80
2011,04,21,15,38,3.40
2011,04,21,15,39,1.40
2011,04,21,15,40,1.20
2011,04,21,15,41,0.80
2011,04,21,15,42,0.40
2011,04,21,15,43,1.00
2011,04,21,15,44,1.30
2011,04,21,15,45,1.00
2011,04,21,15,46,1.20
2011,04,21,15,47,0.40
2011,04,21,15,48,1.90
2011,04,21,15,49,0.70
2011,04,21,15,50,3.50
2011,04,21,15,51,4.50
2011,04,21,15,52,4.50
2011,04,21,15,53,4.00
2011,04,21,15,54,4.00
2011,04,21,15,55,7.30
2011,04,21,15,56,2.00
2011,04,21,15,57,0.50
2011,04,21,15,58,1.80
2011,04,21,15,59,3.60
2011,04,21,16,00,1.00
2011,04,21,16,01,3.10
2011,04,21,16,02,4.20
2011,04,21,16,03,1.80
2011,04,21,16,04,3.60
2011,04,21,16,05,0.90
2011,04,21,16,06,0.00
2011,04,21,16,07,3.60
2011,04,21,16,08,2.70
2011,04,21,16,09,7.90
2011,04,21,16,10,5.80
2011,04,21,16,11,1.80
2011,04,21,16,12,1.00
2011,04,21,16,13,3.90
2011,04,21,16,14,2.90
2011,04,21,16,15,3.40
2011,04,21,16,16,4.70
2011,04,21,16,17,1.90
2011,04,21,16,18,3.20
2011,04,21,16,19,0.80
2011,04,21,16,20,0.20
2011,04,21,16,21,4.20
2011,04,21,16,22,15.50
2011,04,21,16,23,4.70
2011,04,21,16,24,2.30
2011,04,21,16,25,1.90
2011,04,21,16,26,1.80
2011,04,21,16,27,0.40
2011,04,21,16,28,5.90
2011,04,21,16,29,8.40
2011,04,21,16,30,13.90
2011,04,21,16,31,4.80
2011,04,21,16,32,0.00
2011,04,21,16,33,0.30
2011,04,21,16,34,1.50
2011,04,21,16,35,1.50
2011,04,21,16,36,0.40
2011,04,21,16,37,1.00
2011,04,21,16,38,3.20
2011,04,21,16,39,6.70
2011,04,21,16,40,5.80
2011,04,21,16,41,4.90
2011,04,21,16,42,4.60
2011,04,21,16,43,2.90
2011,04,21,16,44,1.30
2011,04,21,16,45,3.90
2011,04,21,16,46,2.10
2011,04,21,16,47,3.70
2011,04,21,16,48,2.00
2011,04,21,16,49,2.30
2011,04,21,16,50,1.70
2011,04,21,16,51,4.30
2011,04,21,16,52,4.40
2011,04,21,16,53,4.20
2011,04,21,16,54,6.00
2011,04,21,16,55,7.10
2011,04,21,16,56,2.90
2011,04,21,16,57,3.40
2011,04,21,16,58,6.60
2011,04,21,16,59,2.90
2011,04,21,17,00,3.70
2011,04,21,17,01,6.30
2011,04,21,17,02,3.80
2011,04,21,17,03,9.30
2011,04,21,17,04,3.60
2011,04,21,17,05,0.20
2011,04,21,17,06,2.60
2011,04,21,17,07,1.50
2011,04,21,17,08,2.70
2011,04,21,17,09,3.10
2011,04,21,17,10,1.10
2011,04,21,17,11,0.10
2011,04,21,17,12,1.10
2011,04,21,17,13,0.20
2011,04,21,17,14,1.90
2011,04,21,17,15,0.20
2011,04,21,17,16,4.30
2011,04,21,17,17,7.20
2011,04,21,17,18,3.50
2011,04,21,17,19,1.60
2011,04,21,17,20,2.00
2011,04,21,17,21,0.60
2011,04,21,17,22,1.10
2011,04,21,17,23,1.00
2011,04,21,17,24,1.00
2011,04,21,17,25,2.70
2011,04,21,17,26,7.50
2011,04,21,17,27,7.70
2011,04,21,17,28,7.40
2011,04,21,17,29,4.80
2011,04,21,17,30,1.40
2011,04,21,17,31,0.50
2011,04,21,17,32,1.20
2011,04,21,17,33,1.00
2011,04,21,17,34,1.50
2011,04,21,17,35,3.90
2011,04,21,17,36,4.50
2011,04,21,17,37,5.60
2011,04,21,17,38,3.90
2011,04,21,17,39,1.90
2011,04,21,17,40,4.30
2011,04,21,17,41,4.60
2011,04,21,17,42,1.20
2011,04,21,17,43,1.40
2011,04,21,17,44,3.80
2011,04,21,17,45,4.30
2011,04,21,17,46,3.10
2011,04,21,17,47,5.20
2011,04,21,17,48,0.80
2011,04,21,17,49,3.20
2011,04,21,17,50,4.90
2011,04,21,17,51,6.00
2011,04,21,17,52,7.00
2011,04,21,17,53,4.30
2011,04,21,17,54,0.50
2011,04,21,17,55,2.60
2011,04,21,17,56,1.50
2011,04,21,17,57,3.50
2011,04,21,17,58,2.00
2011,04,21,17,59,2.60
2011,04,21,18,00,3.70
2011,04,21,18,01,1.40
2011,04,21,18,02,1.60
2011,04,21,18,03,3.90
2011,04,21,18,04,9.30
2011,04,21,18,05,6.40
2011,04,21,18,06,7.40
2011,04,21,18,07,5.40
2011,04,21,18,08,2.50
2011,04,21,18,09,2.70
2011,04,21,18,10,1.80
2011,04,21,18,11,3.10
2011,04,21,18,12,3.10
2011,04,21,18,13,4.10
2011,04,21,18,14,2.30
2011,04,21,18,15,2.70
2011,04,21,18,16,3.80
2011,04,21,18,17,2.90
2011,04,21,18,18,5.90
2011,04,21,18,19,3.00
2011,04,21,18,20,1.80
2011,04,21,18,21,0.00
2011,04,21,18,22,0.20
2011,04,21,18,23,0.20
2011,04,21,18,24,0.00
2011,04,21,18,25,1.10
2011,04,21,18,26,1.90
2011,04,21,18,27,2.20
2011,04,21,18,28,0.40
2011,04,21,18,29,0.80
2011,04,21,18,30,3.00
2011,04,21,18,31,0.50
2011,04,21,18,32,1.80
2011,04,21,18,33,1.10
2011,04,21,18,34,1.10
2011,04,21,18,35,4.50
2011,04,21,18,36,3.50
2011,04,21,18,37,5.50
2011,04,21,18,38,4.80
2011,04,21,18,39,4.80
2011,04,21,18,40,3.30
2011,04,21,18,41,3.50
2011,04,21,18,42,5.20
2011,04,21,18,43,4.10
2011,04,21,18,44,3.60
2011,04,21,18,45,2.00
2011,04,21,18,46,1.10
2011,04,21,18,47,3.50
2011,04,21,18,48,1.00
2011,04,21,18,49,1.60
2011,04,21,18,50,1.00
2011,04,21,18,51,0.60
2011,04,21,18,52,0.20
2011,04,21,18,53,2.10
2011,04,21,18,54,2.10
2011,04,21,18,55,2.90
2011,04,21,18,56,2.40
2011,04,21,18,57,3.50
2011,04,21,18,58,1.90
2011,04,21,18,59,2.30
2011,04,21,19,00,1.70
2011,04,21,19,01,0.60
2011,04,21,19,02,0.80
2011,04,21,19,03,1.10
2011,04,21,19,04,4.30
2011,04,21,19,05,4.70
2011,04,21,19,06,4.30
2011,04,21,19,07,2.10
2011,04,21,19,08,3.00
2011,04,21,19,09,2.60
2011,04,21,19,10,0.20
2011,04,21,19,11,3.80
2011,04,21,19,12,1.90
2011,04,21,19,13,0.90
2011,04,21,19,14,0.60
2011,04,21,19,15,1.50
2011,04,21,19,16,0.70
2011,04,21,19,17,1.30
2011,04,21,19,18,1.30
2011,04,21,19,19,1.90
2011,04,21,19,20,1.00
2011,04,21,19,21,3.50
2011,04,21,19,22,3.20
2011,04,21,19,23,3.00
2011,04,21,19,24,2.30
2011,04,21,19,25,2.50
2011,04,21,19,26,1.70
2011,04,21,19,27,2.30
2011,04,21,19,28,0.30
2011,04,21,19,29,2.20
2011,04,21,19,30,1.00
2011,04,21,19,31,2.10
2011,04,21,19,32,2.60
2011,04,21,19,33,0.90
2011,04,21,19,34,2.10
2011,04,21,19,35,2.20
2011,04,21,19,36,1.00
2011,04,21,19,37,4.20
2011,04,21,19,38,5.00
2011,04,21,19,39,4.20
2011,04,21,19,40,0.90
2011,04,21,19,41,1.20
2011,04,21,19,42,1.70
2011,04,21,19,43,2.10
2011,04,21,19,44,3.50
2011,04,21,19,45,2.70
2011,04,21,19,46,1.80
2011,04,21,19,47,1.90
2011,04,21,19,48,1.40
2011,04,21,19,49,2.60
2011,04,21,19,50,2.60
2011,04,21,19,51,1.70
2011,04,21,19,52,1.90
2011,04,21,19,53,3.60
2011,04,21,19,54,1.50
2011,04,21,19,55,0.80
2011,04,21,19,56,0.10
2011,04,21,19,57,2.30
2011,04,21,19,58,2.70
2011,04,21,19,59,3.20
2011,04,21,20,00,5.80
2011,04,21,20,01,2.80
2011,04,21,20,02,0.50
2011,04,21,20,03,0.70
2011,04,21,20,04,0.70
2011,04,21,20,05,0.50
2011,04,21,20,06,2.10
2011,04,21,20,07,2.70
2011,04,21,20,08,0.60
2011,04,21,20,09,0.60
2011,04,21,20,10,3.00
2011,04,21,20,11,3.50
2011,04,21,20,12,5.10
2011,04,21,20,13,3.60
2011,04,21,20,14,2.10
2011,04,21,20,15,2.30
2011,04,21,20,16,2.80
2011,04,21,20,17,2.70
2011,04,21,20,18,2.60
2011,04,21,20,19,2.60
2011,04,21,20,20,1.20
2011,04,21,20,21,1.00
2011,04,21,20,22,1.10
2011,04,21,20,23,1.50
2011,04,21,20,24,1.10
2011,04,21,20,25,1.80
2011,04,21,20,26,1.10
2011,04,21,20,27,1.10
2011,04,21,20,28,1.40
2011,04,21,20,29,1.60
2011,04,21,20,30,2.40
2011,04,21,20,31,0.60
2011,04,21,20,32,4.90
2011,04,21,20,33,2.80
2011,04,21,20,34,2.10
2011,04,21,20,35,2.80
2011,04,21,20,36,3.60
2011,04,21,20,37,2.80
2011,04,21,20,38,1.00
2011,04,21,20,39,0.70
2011,04,21,20,40,3.60
2011,04,21,20,41,3.30
2011,04,21,20,42,2.50
2011,04,21,20,43,2.80
2011,04,21,20,44,2.30
2011,04,21,20,45,1.90
2011,04,21,20,46,2.70
2011,04,21,20,47,2.70
2011,04,21,20,48,2.30
2011,04,21,20,49,1.00
2011,04,21,20,50,1.50
2011,04,21,20,51,1.10
2011,04,21,20,52,1.50
2011,04,21,20,53,2.30
2011,04,21,20,54,3.10
2011,04,21,20,55,2.80
2011,04,21,20,56,2.70
2011,04,21,20,57,3.40
2011,04,21,20,58,1.90
2011,04,21,20,59,1.80
2011,04,21,21,00,1.60
2011,04,21,21,01,1.50
2011,04,21,21,02,2.40
2011,04,21,21,03,0.50
2011,04,21,21,04,0.10
2011,04,21,21,05,1.40
2011,04,21,21,06,2.70
2011,04,21,21,07,1.70
2011,04,21,21,08,0.70
2011,04,21,21,09,1.50
2011,04,21,21,10,1.40
2011,04,21,21,11,1.00
2011,04,21,21,12,1.60
2011,04,21,21,13,1.20
2011,04,21,21,14,0.70
2011,04,21,21,15,1.70
2011,04,21,21,16,0.40
2011,04,21,21,17,0.00
2011,04,21,21,18,0.10
2011,04,21,21,19,0.10
2011,04,21,21,20,0.20
2011,04,21,21,21,0.30
2011,04,21,21,22,0.80
2011,04,21,21,23,0.00
2011,04,21,21,24,0.00
2011,04,21,21,25,0.70
2011,04,21,21,26,0.20
2011,04,21,21,27,0.00
2011,04,21,21,28,0.10
2011,04,21,21,29,0.20
2011,04,21,21,30,1.40
2011,04,21,21,31,1.50
2011,04,21,21,32,1.10
2011,04,21,21,33,0.00
2011,04,21,21,34,0.00
2011,04,21,21,35,0.00
2011,04,21,21,36,0.30
2011,04,21,21,37,0.70
2011,04,21,21,38,0.00
2011,04,21,21,39,0.40
2011,04,21,21,40,1.50
2011,04,21,21,41,0.00
2011,04,21,21,42,0.00
2011,04,21,21,43,0.70
2011,04,21,21,44,0.10
2011,04,21,21,45,0.00
2011,04,21,21,46,0.00
2011,04,21,21,47,0.00
2011,04,21,21,48,0.10
2011,04,21,21,49,0.90
2011,04,21,21,50,0.80
2011,04,21,21,51,0.00
2011,04,21,21,52,0.00
2011,04,21,21,53,0.00
2011,04,21,21,54,0.20
2011,04,21,21,55,0.50
2011,04,21,21,56,1.00
2011,04,21,21,57,0.40
2011,04,21,21,58,0.70
2011,04,21,21,59,0.30
2011,04,21,22,00,0.90
2011,04,21,22,01,0.00
2011,04,21,22,02,0.00
2011,04,21,22,03,0.10
2011,04,21,22,04,0.00
2011,04,21,22,05,0.00
2011,04,21,22,06,0.00
2011,04,21,22,07,0.00
2011,04,21,22,08,0.00
2011,04,21,22,09,0.00
2011,04,21,22,10,0.00
2011,04,21,22,11,0.20
2011,04,21,22,12,0.00
2011,04,21,22,13,0.10
2011,04,21,22,14,0.00
2011,04,21,22,15,0.00
2011,04,21,22,16,0.00
2011,04,21,22,17,0.00
2011,04,21,22,18,0.00
2011,04,21,22,19,0.00
2011,04,21,22,20,0.00
2011,04,21,22,21,0.00
2011,04,21,22,22,0.00
2011,04,21,22,23,0.00
2011,04,21,22,24,0.00
2011,04,21,22,25,0.00
2011,04,21,22,26,0.00
2011,04,21,22,27,0.00
2011,04,21,22,28,0.10
2011,04,21,22,29,0.10
2011,04,21,22,30,0.10
2011,04,21,22,31,0.00
2011,04,21,22,32,0.00
2011,04,21,22,33,0.00
2011,04,21,22,34,0.00
2011,04,21,22,35,0.00
2011,04,21,22,36,0.00
2011,04,21,22,37,0.00
2011,04,21,22,38,0.00
2011,04,21,22,39,0.00
2011,04,21,22,40,0.20
2011,04,21,22,41,0.00
2011,04,21,22,42,0.00
2011,04,21,22,43,0.00
2011,04,21,22,44,0.00
2011,04,21,22,45,0.00
2011,04,21,22,46,0.00
2011,04,21,22,47,0.00